Fredericton, New Brunswick

12:33 PM ADT on October 19, 2017 (GMT -0300)
Greater Fredericton Airport

Weather History for CYFC - October, 2012

Change the Weather History Date:

Friday, October 19, 2012

  Actual Average Record
Temperature  
Mean Temperature 50 °F -  
Max Temperature 65 °F 47 °F 66 °F (1998)
Min Temperature 34 °F 29 °F 23 °F (2008)
Degree Days  
Heating Degree Days 16    
Moisture  
Dew Point 43 °F    
Average Humidity 68    
Maximum Humidity 94    
Minimum Humidity 24    
Precipitation  
Precipitation 0.08 in 0.14 in - ()
Sea Level Pressure  
Sea Level Pressure 30.18 in    
Wind  
Wind Speed 2 mph ()    
Max Wind Speed 9 mph    
Max Gust Speed -    
Visibility 5.0 miles    
Events Fog , Rain    
Averages and records for this station are not official NWS values.
T = Trace of Precipitation, MM = Missing Value Source: Averaged Metar Reports

Daily Weather History Graph

Daily Weather History Graph

Search for Another Location

Airport or City:

Trip Planner

Search our weather history database for the weather conditions in past years. The results will help you decide how hot, cold, wet, or windy it might be!

Date:

Astronomy

Oct. 19, 2012 Rise Set
Actual Time 7:48 AM ADT 6:32 PM ADT
Civil Twilight 7:18 AM ADT 7:02 PM ADT
Nautical Twilight 6:43 AM ADT 7:37 PM ADT
Astronomical Twilight 6:09 AM ADT 8:11 PM ADT
Moon 12:39 PM ADT 9:55 PM ADT
Length of Visible Light 11h 44m
Length of Day
10h 43m
Waxing Crescent, 23% of the Moon is Illuminated
Oct 19
Waxing Crescent
Oct 22
First Quarter
Oct 29
Full
Nov 6
Last Quarter
Nov 13
New

Hourly Weather History & Observations

Time (ADT) Temp. Windchill Dew Point Humidity Pressure Visibility Wind Dir Wind Speed Gust Speed Precip Events Conditions
12:00 AM 39.2 °F - - N/A% 30.20 in 9.0 mi Calm Calm - N/A   Clear
1:00 AM 37.4 °F - - N/A% 30.20 in 9.0 mi Calm Calm - N/A   Partly Cloudy
1:21 AM 37.4 °F - - N/A% 30.20 in 9.0 mi Calm Calm - N/A   Partly Cloudy
2:00 AM 35.6 °F - - N/A% 30.22 in 9.0 mi Variable 2.3 mph - N/A   Mostly Cloudy
2:05 AM 35.6 °F - - N/A% 30.22 in 5.0 mi Calm Calm - N/A   Haze
2:10 AM 35.6 °F - - N/A% 30.21 in 2.2 mi Calm Calm - N/A   Mostly Cloudy
2:11 AM 35.6 °F - - N/A% 30.21 in 1.8 mi Variable 2.3 mph - N/A   Mostly Cloudy
2:20 AM 37.4 °F - - N/A% 30.20 in 0.4 mi ENE 2.3 mph - N/A Fog Fog
2:33 AM 37.4 °F - - N/A% 30.21 in 0.5 mi ESE 2.3 mph - N/A Fog Fog
2:44 AM 37.4 °F - - N/A% 30.21 in 0.4 mi Calm Calm - N/A Fog Fog
3:00 AM 34 °F - - % 30.21 in 0 mi SSE 2.3 mph - -  
3:00 AM 33.8 °F - - N/A% 30.21 in 0.4 mi SE 2.3 mph - N/A Fog Fog
3:13 AM 35.6 °F - - N/A% 30.21 in 0.5 mi Calm Calm - N/A Fog Fog
3:20 AM 35.6 °F - - N/A% 30.21 in 0.5 mi Calm Calm - N/A Fog Fog
3:21 AM 35.6 °F - - N/A% 30.21 in 0.4 mi Calm Calm - N/A Fog Fog
3:50 AM 35.6 °F 32.8 °F - N/A% 30.21 in 0.1 mi ESE 3.5 mph - N/A Fog Fog
4:00 AM 33.8 °F - - N/A% 30.21 in 0.1 mi SE 2.3 mph - N/A Fog Fog
5:00 AM 37.4 °F - - N/A% 30.20 in 0.2 mi ENE 2.3 mph - N/A Fog Fog
5:14 AM 39.2 °F 37.0 °F - N/A% 30.20 in 0.5 mi North 3.5 mph - N/A Fog Fog
5:25 AM 41.0 °F 38.0 °F - N/A% 30.20 in 0.4 mi NE 4.6 mph - N/A Fog Fog
6:00 AM 41.0 °F 39.0 °F - N/A% 30.19 in 0.2 mi North 3.5 mph - N/A Fog Fog
7:00 AM 41.0 °F 39.0 °F - N/A% 30.22 in 0.2 mi NNW 3.5 mph - N/A Fog Fog
8:00 AM 42.8 °F - - N/A% 30.23 in 0.1 mi Calm Calm - N/A Fog Fog
9:00 AM 43 °F - - % 30.25 in 0 mi North 1.2 mph - -  
9:00 AM 42.8 °F - - N/A% 30.25 in 0.1 mi Calm Calm - N/A Fog Fog
10:00 AM 46.4 °F - - N/A% 30.24 in 0.4 mi Variable 2.3 mph - N/A Fog Fog
10:05 AM 46.4 °F 45.2 °F - N/A% 30.24 in 0.5 mi North 3.5 mph - N/A Fog Fog
10:47 AM 48.2 °F - - N/A% 30.23 in 2.0 mi Variable 2.3 mph - N/A   Overcast
10:49 AM 48.2 °F - - N/A% 30.23 in 4.0 mi Variable 2.3 mph - N/A   Haze
10:50 AM 48.2 °F - - N/A% 30.23 in 6.0 mi Variable 2.3 mph - N/A   Haze
11:00 AM 48.2 °F - - N/A% 30.24 in 7.0 mi Variable 2.3 mph - N/A   Overcast
11:48 AM 50.0 °F - - N/A% 30.22 in 9.0 mi Variable 3.5 mph - N/A   Scattered Clouds
12:00 PM 50.0 °F - 48.2 °F 94% 30.22 in 9.0 mi NNE 3.5 mph - N/A   Partly Cloudy
1:00 PM 55.4 °F - 50.0 °F 82% 30.21 in 9.0 mi Variable 3.5 mph - N/A   Clear
1:05 PM 57.2 °F - 48.2 °F 72% 30.21 in 5.0 mi Variable 2.3 mph - N/A   Haze
1:14 PM 57.2 °F - 48.2 °F 72% 30.21 in 6.0 mi Variable 2.3 mph - N/A   Haze
2:00 PM 60.8 °F - 46.4 °F 59% 30.19 in 9.0 mi East 5.8 mph - N/A   Clear
2:38 PM 62.6 °F - 44.6 °F 52% 30.17 in 5.0 mi NE 5.8 mph - N/A   Haze
3:00 PM 64 °F - 36 °F 24% 30.17 in 5 mi ESE 5.8 mph - -   Light Haze
3:00 PM 64.4 °F - 35.6 °F 34% 30.16 in 5.0 mi SE 6.9 mph - N/A   Haze
3:01 PM 64.4 °F - 35.6 °F 34% 30.16 in 6.0 mi SE 6.9 mph - N/A   Haze
4:00 PM 62.6 °F - 32.0 °F 32% 30.15 in 9.0 mi SSE 9.2 mph - N/A   Clear
5:00 PM 60.8 °F - 32.0 °F 34% 30.15 in 9.0 mi SE 9.2 mph - N/A   Clear
6:00 PM 57.2 °F - 26.6 °F 31% 30.15 in 9.0 mi SE 5.8 mph - N/A   Clear
7:00 PM 51.8 °F - 32.0 °F 47% 30.15 in 9.0 mi East 4.6 mph - N/A   Clear
8:00 PM 51.8 °F - 35.6 °F 54% 30.15 in 9.0 mi East 4.6 mph - N/A   Mostly Cloudy
8:37 PM 51.8 °F - 39.2 °F 62% 30.14 in 8.0 mi ESE 3.5 mph - N/A Rain Light Rain
9:00 PM 51 °F - 45 °F 72% 30.12 in 10 mi East 5.8 mph - - Rain Light Rain
9:00 PM 50.0 °F - 44.6 °F 82% 30.12 in 9.0 mi ENE 6.9 mph - N/A Rain Light Rain
9:01 PM 50.0 °F - 44.6 °F 82% 30.12 in 9.0 mi ENE 6.9 mph - N/A   Overcast
9:09 PM 50.0 °F - 44.6 °F 82% 30.12 in 9.0 mi ENE 4.6 mph - N/A Rain Light Rain
9:34 PM 50.0 °F - 46.4 °F 87% 30.12 in 9.0 mi ENE 4.6 mph - N/A   Overcast
10:00 PM 50.0 °F - 44.6 °F 82% 30.10 in 9.0 mi ENE 3.5 mph - N/A   Overcast
10:46 PM 50.0 °F - 46.4 °F 87% 30.10 in 9.0 mi NE 5.8 mph - N/A   Overcast
11:00 PM 50.0 °F - 46.4 °F 87% 30.10 in 9.0 mi NNE 4.6 mph - N/A   Overcast
11:32 PM 51.8 °F - 48.2 °F 88% 30.08 in 9.0 mi ENE 6.9 mph - N/A   Overcast
11:35 PM 51.8 °F - 48.2 °F 88% 30.08 in 6.0 mi ENE 8.1 mph - N/A Rain Light Rain
11:37 PM 51.8 °F - 48.2 °F 88% 30.08 in 5.0 mi ENE 6.9 mph - N/A Rain Light Rain
11:43 PM 51.8 °F - 50.0 °F 94% 30.08 in 7.0 mi NE 5.8 mph - N/A Rain Light Rain
11:50 PM 51.8 °F - 50.0 °F 94% 30.07 in 9.0 mi NE 6.9 mph - N/A   Overcast